Weather History for KCBM - October, 2013

Change the Weather History Date:

Saturday, October 12, 2013

  Actual Average (KTUP) Record (KTUP)
Temperature  
Mean Temperature 70 °F 64 °F  
Max Temperature 86 °F 77 °F 92 °F (1963)
Min Temperature 55 °F 52 °F 33 °F (1977)
Degree Days  
Heating Degree Days 0 3  
Month to date heating degree days 29  
Since 1 July heating degree days 41  
Cooling Degree Days 6 3  
Month to date cooling degree days 44  
Year to date cooling degree days 2002  
Growing Degree Days 20 (Base 50)    
Moisture  
Dew Point 59 °F    
Average Humidity 95    
Maximum Humidity 100    
Minimum Humidity 45    
Precipitation  
Precipitation 0.00 in 0.13 in 4.44 in (1970)
Month to date precipitation 1.60  
Year to date precipitation 41.51  
Snow  
Snow 0.00 in 0.00 in 0.00 in (2002)
Month to date snowfall 0.0  
Since 1 July snowfall 0.0  
Since 1 September snowfall 0.0  
Snow Depth -    
Sea Level Pressure  
Sea Level Pressure 30.03 in    
Wind  
Wind Speed 1 mph (NNW)    
Max Wind Speed 9 mph    
Max Gust Speed -    
Visibility 4 miles    
Events Fog , Rain    
T = Trace of Precipitation, MM = Missing Value Source: NWS Daily Summary

Daily Weather History Graph

Daily Weather History Graph

Search for Another Location

Airport or City:

Trip Planner

Search our weather history database for the weather conditions in past years. The results will help you decide how hot, cold, wet, or windy it might be!

Date:

Astronomy

Oct. 12, 2013 Rise Set
Actual Time 6:56 AM CDT 6:23 PM CDT
Civil Twilight 6:31 AM CDT 6:48 PM CDT
Nautical Twilight 6:02 AM CDT 7:17 PM CDT
Astronomical Twilight 5:33 AM CDT 7:46 PM CDT
Moon 2:16 PM CDT (10/12) 12:17 AM CDT (10/12)
Length of Visible Light 12h 16m
Length of Day
11h 26m
First Quarter, 59% of the Moon is Illuminated
Oct 12
First Quarter
Oct 18
Full
Oct 26
Last Quarter
Nov 3
New
Nov 9
First Quarter

Hourly Weather History & Observations

Time (CDT) Temp. Heat Index Dew Point Humidity Pressure Visibility Wind Dir Wind Speed Gust Speed Precip Events Conditions
12:00 AM 60.8 °F - 60.8 °F 100% 30.01 in 0.5 mi West 2.3 mph - N/A Fog Fog
12:02 AM 60.8 °F - 60.8 °F 100% 30.01 in 0.5 mi Calm Calm - N/A Fog Fog
12:03 AM 60.8 °F - 60.8 °F 100% 30.01 in 0.5 mi Calm Calm - N/A Fog Fog
12:04 AM 60.8 °F - 60.8 °F 100% 30.01 in 0.5 mi Calm Calm - N/A Fog Fog
12:07 AM 59.0 °F - 59.0 °F 100% 30.01 in 1.0 mi NW 1.2 mph - N/A   Clear
12:08 AM 59.0 °F - 59.0 °F 100% 30.01 in 1.2 mi West 1.2 mph - N/A   Clear
12:09 AM 59.0 °F - 59.0 °F 100% 30.01 in 1.8 mi West 1.2 mph - N/A   Clear
12:10 AM 59.0 °F - 59.0 °F 100% 30.01 in 3.0 mi Calm Calm - N/A   Clear
12:11 AM 59.0 °F - 59.0 °F 100% 30.01 in 4.0 mi Calm Calm - N/A   Clear
12:13 AM 59.0 °F - 59.0 °F 100% 30.01 in 4.0 mi Calm Calm - N/A   Clear
12:14 AM 59.0 °F - 59.0 °F 100% 30.01 in 1.8 mi Calm Calm - N/A   Clear
12:15 AM 59.0 °F - 59.0 °F 100% 30.01 in 1.0 mi Calm Calm - N/A   Clear
12:16 AM 59.0 °F - 59.0 °F 100% 30.01 in 0.8 mi West 1.2 mph - N/A   Clear
12:17 AM 59.0 °F - 59.0 °F 100% 30.01 in 0.5 mi West 1.2 mph - N/A Fog Fog
12:18 AM 59.0 °F - 59.0 °F 100% 30.01 in 0.5 mi West 1.2 mph - N/A Fog Fog
12:21 AM 59.0 °F - 59.0 °F 100% 30.01 in 0.2 mi Calm Calm - N/A Fog Fog
12:23 AM 59.0 °F - 59.0 °F 100% 30.01 in 0.2 mi NW 1.2 mph - N/A Fog Fog
12:24 AM 59.0 °F - 59.0 °F 100% 30.01 in 0.2 mi West 1.2 mph - N/A Fog Fog
12:28 AM 59.0 °F - 59.0 °F 100% 30.01 in 0.2 mi Calm Calm - N/A Fog Fog
12:29 AM 59.0 °F - 59.0 °F 100% 30.01 in 0.2 mi Variable 1.2 mph - N/A Fog Fog
12:30 AM 59.0 °F - 59.0 °F 100% 30.01 in 0.2 mi Variable 2.3 mph - N/A Fog Fog
12:32 AM 59.0 °F - 59.0 °F 100% 30.01 in 0.5 mi NNE 2.3 mph - N/A Fog Fog
12:33 AM 59.0 °F - 59.0 °F 100% 30.01 in 0.8 mi NE 2.3 mph - N/A   Clear
12:34 AM 59.0 °F - 59.0 °F 100% 30.01 in 1.2 mi NE 2.3 mph - N/A   Clear
12:35 AM 59.0 °F - 59.0 °F 100% 30.01 in 2.0 mi NE 2.3 mph - N/A   Clear
12:36 AM 59.0 °F - 59.0 °F 100% 30.01 in 3.0 mi NE 2.3 mph - N/A   Clear
12:37 AM 59.0 °F - 59.0 °F 100% 30.01 in 4.0 mi NE 2.3 mph - N/A   Clear
12:39 AM 60.8 °F - 60.8 °F 100% 30.01 in 6.0 mi NE 2.3 mph - N/A   Clear
12:56 AM 60.8 °F - 60.8 °F 100% 30.02 in 10.0 mi ENE 2.3 mph - N/A   Clear
1:38 AM 59.0 °F - 59.0 °F 100% 30.02 in 4.0 mi Calm Calm - N/A   Clear
1:49 AM 57.2 °F - 57.2 °F 100% 30.03 in 2.5 mi Calm Calm - N/A   Clear
1:56 AM 59.0 °F - 59.0 °F 100% 30.03 in 4.0 mi Calm Calm - N/A   Clear
1:58 AM 59.0 °F - 59.0 °F 100% 30.03 in 8.0 mi Calm Calm - N/A   Clear
2:08 AM 59.0 °F - 59.0 °F 100% 30.03 in 2.0 mi Calm Calm - N/A   Clear
2:09 AM 59.0 °F - 59.0 °F 100% 30.02 in 1.8 mi Calm Calm - N/A   Clear
2:10 AM 59.0 °F - 59.0 °F 100% 30.02 in 1.0 mi Calm Calm - N/A   Clear
2:11 AM 59.0 °F - 59.0 °F 100% 30.02 in 0.8 mi Calm Calm - N/A   Clear
2:12 AM 59.0 °F - 59.0 °F 100% 30.02 in 0.8 mi Calm Calm - N/A   Clear
2:14 AM 59.0 °F - 59.0 °F 100% 30.02 in 0.5 mi Calm Calm - N/A Fog Fog
2:16 AM 59.0 °F - 59.0 °F 100% 30.02 in 0.5 mi Calm Calm - N/A Fog Fog
2:17 AM 59.0 °F - 59.0 °F 100% 30.02 in 0.5 mi Calm Calm - N/A Fog Fog
2:19 AM 59.0 °F - 59.0 °F 100% 30.03 in 0.5 mi Calm Calm - N/A Fog Fog
2:28 AM 59.0 °F - 59.0 °F 100% 30.02 in 0.5 mi Calm Calm - N/A Fog Fog
2:30 AM 59.0 °F - 59.0 °F 100% 30.02 in 0.5 mi Calm Calm - N/A Fog Fog
2:31 AM 59.0 °F - 59.0 °F 100% 30.02 in 0.8 mi Calm Calm - N/A   Clear
2:32 AM 59.0 °F - 59.0 °F 100% 30.02 in 0.8 mi Calm Calm - N/A   Clear
2:34 AM 59.0 °F - 59.0 °F 100% 30.02 in 1.0 mi Calm Calm - N/A   Clear
2:35 AM 59.0 °F - 59.0 °F 100% 30.02 in 1.2 mi Calm Calm - N/A   Clear
2:36 AM 59.0 °F - 59.0 °F 100% 30.02 in 1.5 mi Calm Calm - N/A   Clear
2:37 AM 59.0 °F - 59.0 °F 100% 30.02 in 2.0 mi Calm Calm - N/A   Clear
2:38 AM 59.0 °F - 59.0 °F 100% 30.02 in 2.5 mi Calm Calm - N/A   Clear
2:40 AM 59.0 °F - 59.0 °F 100% 30.02 in 4.0 mi Calm Calm - N/A   Clear
2:43 AM 59.0 °F - 59.0 °F 100% 30.02 in 7.0 mi Calm Calm - N/A   Clear
2:54 AM 59.0 °F - 59.0 °F 100% 30.02 in 3.0 mi Calm Calm - N/A   Clear
2:56 AM 59.0 °F - 59.0 °F 100% 30.02 in 1.0 mi Calm Calm - N/A   Clear
2:57 AM 59.0 °F - 59.0 °F 100% 30.02 in 0.8 mi Calm Calm - N/A   Clear
2:58 AM 59.0 °F - 59.0 °F 100% 30.02 in 0.8 mi Calm Calm - N/A   Clear
3:00 AM 59.0 °F - 59.0 °F 100% 30.02 in 0.5 mi Calm Calm - N/A Fog Fog
3:03 AM 57.2 °F - 57.2 °F 100% 30.02 in 0.2 mi Calm Calm - N/A Fog Fog
3:04 AM 57.2 °F - 57.2 °F 100% 30.02 in 0.5 mi Calm Calm - N/A Fog Fog
3:05 AM 57.2 °F - 57.2 °F 100% 30.02 in 0.5 mi Calm Calm - N/A Fog Fog
3:06 AM 57.2 °F - 57.2 °F 100% 30.02 in 0.5 mi Calm Calm - N/A Fog Fog
3:09 AM 57.2 °F - 57.2 °F 100% 30.02 in 1.0 mi Calm Calm - N/A   Clear
3:10 AM 57.2 °F - 57.2 °F 100% 30.02 in 1.5 mi Calm Calm - N/A   Clear
3:11 AM 57.2 °F - 57.2 °F 100% 30.02 in 2.5 mi Calm Calm - N/A   Clear
3:12 AM 57.2 °F - 57.2 °F 100% 30.02 in 5.0 mi Calm Calm - N/A   Clear
3:13 AM 57.2 °F - 57.2 °F 100% 30.02 in 7.0 mi Calm Calm - N/A   Clear
3:27 AM 57.2 °F - 57.2 °F 100% 30.02 in 2.5 mi Calm Calm - N/A   Clear
3:28 AM 57.2 °F - 57.2 °F 100% 30.02 in 1.8 mi Calm Calm - N/A   Clear
3:29 AM 57.2 °F - 57.2 °F 100% 30.02 in 1.5 mi Calm Calm - N/A   Clear
3:30 AM 57.2 °F - 57.2 °F 100% 30.02 in 1.0 mi Calm Calm - N/A   Clear
3:31 AM 57.2 °F - 57.2 °F 100% 30.02 in 1.0 mi Calm Calm - N/A   Clear
3:34 AM 57.2 °F - 57.2 °F 100% 30.02 in 0.8 mi Calm Calm - N/A   Clear
3:37 AM 57.2 °F - 57.2 °F 100% 30.02 in 1.0 mi Calm Calm - N/A   Clear
3:39 AM 57.2 °F - 57.2 °F 100% 30.02 in 1.5 mi Calm Calm - N/A   Clear
3:40 AM 57.2 °F - 57.2 °F 100% 30.02 in 2.5 mi Calm Calm - N/A   Clear
3:41 AM 57.2 °F - 57.2 °F 100% 30.02 in 2.5 mi Calm Calm - N/A   Clear
3:48 AM 57.2 °F - 57.2 °F 100% 30.02 in 1.8 mi Calm Calm - N/A   Clear
3:51 AM 57.2 °F - 57.2 °F 100% 30.02 in 1.5 mi Calm Calm - N/A   Clear
3:53 AM 57.2 °F - 57.2 °F 100% 30.02 in 1.2 mi Calm Calm - N/A   Clear
3:55 AM 55.4 °F - 55.4 °F 100% 30.02 in 1.0 mi Calm Calm - N/A   Clear
3:56 AM 55.4 °F - 55.4 °F 100% 30.02 in 1.0 mi Calm Calm - N/A   Clear
4:02 AM 55.4 °F - 55.4 °F 100% 30.02 in 1.5 mi Calm Calm - N/A   Clear
4:03 AM 55.4 °F - 55.4 °F 100% 30.02 in 1.8 mi Calm Calm - N/A   Clear
4:04 AM 57.2 °F - 57.2 °F 100% 30.02 in 2.5 mi Calm Calm - N/A   Clear
4:05 AM 57.2 °F - 57.2 °F 100% 30.02 in 4.0 mi Calm Calm - N/A   Clear
4:06 AM 57.2 °F - 57.2 °F 100% 30.02 in 5.0 mi Calm Calm - N/A   Clear
4:07 AM 57.2 °F - 57.2 °F 100% 30.02 in 6.0 mi Calm Calm - N/A   Clear
4:25 AM 55.4 °F - 55.4 °F 100% 30.03 in 2.5 mi Calm Calm - N/A   Clear
4:26 AM 55.4 °F - 55.4 °F 100% 30.03 in 2.0 mi Calm Calm - N/A   Clear
4:30 AM 55.4 °F - 55.4 °F 100% 30.03 in 1.8 mi Calm Calm - N/A   Clear
4:32 AM 55.4 °F - 55.4 °F 100% 30.03 in 1.5 mi Calm Calm - N/A   Clear
4:36 AM 55.4 °F - 55.4 °F 100% 30.03 in 1.8 mi Calm Calm - N/A   Clear
4:38 AM 55.4 °F - 55.4 °F 100% 30.03 in 2.0 mi Calm Calm - N/A   Clear
4:44 AM 55.4 °F - 55.4 °F 100% 30.03 in 5.0 mi Calm Calm - N/A   Clear
4:45 AM 55.4 °F - 55.4 °F 100% 30.03 in 6.0 mi Calm Calm - N/A   Clear
4:56 AM 57.2 °F - 57.2 °F 100% 30.03 in 5.0 mi Calm Calm - N/A   Clear
5:00 AM 57.2 °F - 57.2 °F 100% 30.03 in 3.0 mi Calm Calm - N/A   Clear
5:02 AM 57.2 °F - 57.2 °F 100% 30.03 in 2.5 mi Calm Calm - N/A   Clear
5:10 AM 57.2 °F - 57.2 °F 100% 30.03 in 4.0 mi Calm Calm - N/A   Clear
5:12 AM 57.2 °F - 57.2 °F 100% 30.03 in 7.0 mi Calm Calm - N/A   Clear
5:56 AM 55.4 °F - 55.4 °F 100% 30.05 in 8.0 mi Calm Calm - N/A   Clear
6:56 AM 57.2 °F - 57.2 °F 100% 30.06 in 10.0 mi Calm Calm - N/A   Partly Cloudy
7:56 AM 59.0 °F - 59.0 °F 100% 30.07 in 10.0 mi Calm Calm - N/A   Clear
8:56 AM 66.2 °F - 62.6 °F 88% 30.09 in 10.0 mi SE 3.5 mph - N/A   Clear
9:32 AM 69.8 °F - 62.6 °F 78% 30.09 in 10.0 mi ESE 2.3 mph - N/A Rain Light Rain
9:42 AM 71.6 °F - 62.6 °F 73% 30.09 in 10.0 mi Variable 2.3 mph - N/A   Partly Cloudy
9:52 AM 73.4 °F - 64.4 °F 73% 30.09 in 10.0 mi West 1.2 mph - N/A   Light Drizzle
9:56 AM 73.4 °F - 64.4 °F 73% 30.09 in 10.0 mi Calm Calm - N/A   Light Drizzle
10:08 AM 75.2 °F - 66.2 °F 73% 30.09 in 10.0 mi Calm Calm - N/A   Clear
10:56 AM 78.8 °F - 68.0 °F 69% 30.10 in 10.0 mi Variable 2.3 mph - N/A   Partly Cloudy
11:56 AM 80.6 °F 83.2 °F 68.0 °F 65% 30.10 in 10.0 mi WNW 4.6 mph - N/A   Clear
12:56 PM 82.4 °F 84.6 °F 66.2 °F 58% 30.07 in 10.0 mi North 3.5 mph - N/A   Scattered Clouds
1:10 PM 82.4 °F 83.9 °F 64.4 °F 54% 30.07 in 10.0 mi NNW 4.6 mph - N/A   Mostly Cloudy
1:20 PM 82.4 °F 83.9 °F 64.4 °F 54% 30.06 in 10.0 mi WNW 5.8 mph - N/A   Scattered Clouds
1:56 PM 86.0 °F 86.6 °F 62.6 °F 45% 30.06 in 10.0 mi West 5.8 mph - N/A   Partly Cloudy
2:56 PM 86.0 °F 87.3 °F 64.4 °F 48% 30.05 in 10.0 mi NNE 4.6 mph - N/A   Partly Cloudy
3:12 PM 82.4 °F 83.9 °F 64.4 °F 54% 30.05 in 10.0 mi North 6.9 mph - N/A   Mostly Cloudy
3:18 PM 82.4 °F 83.9 °F 64.4 °F 54% 30.05 in 10.0 mi North 4.6 mph - N/A   Mostly Cloudy
3:56 PM 84.2 °F 85.6 °F 64.4 °F 51% 30.05 in 10.0 mi NNE 6.9 mph - N/A   Clear
4:56 PM 80.6 °F 82.7 °F 66.2 °F 61% 30.04 in 10.0 mi NE 9.2 mph - N/A   Clear
5:56 PM 77.0 °F - 66.2 °F 69% 30.02 in 10.0 mi ESE 4.6 mph - N/A   Clear
6:56 PM 71.6 °F - 66.2 °F 83% 30.04 in 10.0 mi Calm Calm - N/A   Clear
7:56 PM 69.8 °F - 68.0 °F 94% 30.06 in 10.0 mi Calm Calm - N/A   Clear
8:56 PM 69.8 °F - 68.0 °F 94% 30.09 in 10.0 mi NNW 3.5 mph - N/A   Clear
9:56 PM 69.8 °F - 68.0 °F 94% 30.10 in 10.0 mi Calm Calm - N/A   Clear
10:56 PM 68.0 °F - 68.0 °F 100% 30.11 in 10.0 mi North 1.2 mph - N/A   Clear
11:56 PM 68.0 °F - 68.0 °F 100% 30.10 in 10.0 mi NE 2.3 mph - N/A   Clear